Regional Weather Roundup
Issued by NWS

Home | Current Version | Previous Version | Graphics & Text | Print | Product List | Glossary On
Versions: 1 2 3 4 5 6 7 8 9 10 11 12 13 14 15 16 17 18 19 20 21 22 23 24 25 26 27 28 29 30 31 32 33 34 35 36 37 38 39 40 41 42 43 44 45 46 47 48 49 50
597
ASUS43 KLMK 251202
RWRKY
KENTUCKY REGIONAL WEATHER ROUNDUP
NATIONAL WEATHER SERVICE LOUISVILLE KY
800 AM EDT SUN JUN 25 2017

NOTE "FAIR" INDICATES FEW OR NO CLOUDS BELOW 12,000 FEET
WITH NO SIGNIFICANT WEATHER AND/OR OBSTRUCTIONS TO VISIBILITY.

KYZ001>023-026-027-061>063-070>075-251300-
WESTERN AND SOUTH CENTRAL KENTUCKY

CITY           SKY/WX    TMP DP  RH WIND       PRES   REMARKS
PADUCAH        SUNNY     61  56  83 W3        30.21R
HENDERSON      MOSUNNY   59  57  93 SW3       30.20
OWENSBORO      SUNNY     61  56  83 NW3       30.20R
HOPKINSVILLE   SUNNY     62  57  83 CALM      30.21R
BOWLING GREEN  SUNNY     63  58  83 CALM      30.21R
GLASGOW        NOT AVBL
$$

KYZ024-025-028>034-038-045-046-053-251300-
NORTH CENTRAL KENTUCKY

CITY           SKY/WX    TMP DP  RH WIND       PRES   REMARKS
LOUISVILLE/SDF MOSUNNY   63  55  75 SW5       30.18R
LOUISVILLE/LOU SUNNY     62  57  83 S3        30.19R
FORT KNOX      MOSUNNY   58  57  96 CALM      30.18R
$$

KYZ035>037-039>044-047>052-055>060-089>105-251300-
NORTHEAST KENTUCKY

CITY           SKY/WX    TMP DP  RH WIND       PRES   REMARKS
LEXINGTON      SUNNY     61  55  81 W3        30.19R
COVINGTON      SUNNY     61  53  75 SW5       30.16R
FRANKFORT      SUNNY     60  54  80 SW3       30.18R
$$

KYZ054-064>069-076>088-106>120-251300-
SOUTHEAST KENTUCKY

CITY           SKY/WX    TMP DP  RH WIND       PRES   REMARKS
JACKSON        MOSUNNY   63  56  78 VRB3      30.20R
LONDON         SUNNY     61  57  87 CALM      30.21R
SOMERSET       SUNNY     61  59  94 CALM      30.22S
MIDDLESBORO    MOSUNNY   60  59  97 CALM      30.21R
MONTICELLO     CLOUDY    62  59  90 N8        30.23R
$$





USA.gov is the U.S. government's official web portal to all federal, state and local government web resources and services.